• In Russia
  • List of Countries
  • For 7 days
  • Water Temperature
  • Satellite Maps
  • Weather Map
  • Weather Widgets
  • user-avatar
    Login

    Hourly Weather Kalemie

    Today, 17 June, Monday

    Time Temperature Precipitation Wind Pressure Humidity
    00:00 +22°C° 0 mm 1 mps 707 mmHg 96%
    01:00 +22°C° 0 mm 1 mps 707 mmHg 96%
    02:00 +22°C° 0 mm 1 mps 707 mmHg 95%
    03:00 +22°C° 0.3 mm 1 mps 707 mmHg 96%
    04:00 +22°C° 0.3 mm 1 mps 707 mmHg 96%
    05:00 +22°C° 0.3 mm 1 mps 707 mmHg 96%
    06:00 +23°C° 0 mm 1 mps 708 mmHg 94%
    07:00 +24°C° 0 mm 1 mps 709 mmHg 91%
    08:00 +24°C° 0 mm 1 mps 709 mmHg 89%
    09:00 +26°C° 0.2 mm 2 mps 709 mmHg 83%
    10:00 +27°C° 0.2 mm 2 mps 709 mmHg 76%
    11:00 +29°C° 0.2 mm 3 mps 709 mmHg 70%
    12:00 +29°C° 1.4 mm 3 mps 708 mmHg 74%
    13:00 +28°C° 1.4 mm 2 mps 708 mmHg 78%
    14:00 +28°C° 1.4 mm 2 mps 707 mmHg 82%
    15:00 +28°C° 1.6 mm 2 mps 707 mmHg 84%
    16:00 +27°C° 1.6 mm 1 mps 707 mmHg 87%
    17:00 +27°C° 1.6 mm 1 mps 707 mmHg 90%
    18:00 +26°C° 0.8 mm 1 mps 707 mmHg 90%
    19:00 +25°C° 0.8 mm 1 mps 708 mmHg 91%
    20:00 +24°C° 0.8 mm 1 mps 708 mmHg 92%
    21:00 +24°C° 0.1 mm 1 mps 708 mmHg 92%
    22:00 +23°C° 0.1 mm 1 mps 709 mmHg 93%
    23:00 +23°C° 0.1 mm 1 mps 709 mmHg 93%

    Tomorrow, 18 June, Tuesday

    Time Temperature Precipitation Wind Pressure Humidity
    00:00 +23°C° 0.2 mm 1 mps 709 mmHg 94%
    01:00 +23°C° 0.2 mm 1 mps 708 mmHg 96%
    02:00 +23°C° 0.2 mm 1 mps 708 mmHg 97%
    03:00 +22°C° 0.2 mm 1 mps 708 mmHg 97%
    04:00 +22°C° 0.2 mm 1 mps 708 mmHg 98%
    05:00 +22°C° 0.2 mm 1 mps 708 mmHg 98%
    06:00 +23°C° 0.2 mm 1 mps 709 mmHg 96%
    07:00 +23°C° 0.2 mm 1 mps 710 mmHg 94%
    08:00 +24°C° 0.2 mm 1 mps 710 mmHg 92%
    09:00 +26°C° 0.2 mm 1 mps 710 mmHg 86%
    10:00 +27°C° 0.2 mm 1 mps 710 mmHg 79%
    11:00 +29°C° 0.2 mm 1 mps 710 mmHg 73%
    12:00 +30°C° 1.4 mm 1 mps 709 mmHg 73%
    13:00 +28°C° 1.4 mm 0 mps 709 mmHg 73%
    14:00 +28°C° 1.4 mm 0 mps 708 mmHg 72%
    15:00 +28°C° 0.4 mm 0 mps 708 mmHg 75%
    16:00 +29°C° 0.4 mm 1 mps 707 mmHg 78%
    17:00 +28°C° 0.4 mm 1 mps 707 mmHg 80%
    18:00 +27°C° 0.2 mm 1 mps 707 mmHg 84%
    19:00 +26°C° 0.2 mm 1 mps 708 mmHg 88%
    20:00 +24°C° 0.2 mm 1 mps 708 mmHg 92%
    21:00 +24°C° 0 mm 1 mps 708 mmHg 92%
    22:00 +24°C° 0 mm 1 mps 708 mmHg 91%
    23:00 +24°C° 0 mm 1 mps 708 mmHg 91%

    Day after tomorrow, 19 June, Wednesday

    Time Temperature Precipitation Wind Pressure Humidity
    00:00 +24°C° 0 mm 1 mps 708 mmHg 92%
    01:00 +23°C° 0 mm 1 mps 707 mmHg 93%
    02:00 +23°C° 0 mm 1 mps 707 mmHg 94%
    03:00 +23°C° 0 mm 1 mps 707 mmHg 93%
    04:00 +23°C° 0 mm 1 mps 707 mmHg 93%
    05:00 +21°C° 0 mm 0 mps 707 mmHg 92%
    06:00 +22°C° 0 mm 0 mps 708 mmHg 89%
    07:00 +23°C° 0 mm 0 mps 708 mmHg 86%
    08:00 +24°C° 0 mm 0 mps 709 mmHg 83%
    09:00 +25°C° 0.6 mm 0 mps 709 mmHg 79%
    10:00 +29°C° 0.6 mm 1 mps 709 mmHg 76%
    11:00 +30°C° 0.6 mm 1 mps 709 mmHg 72%
    12:00 +31°C° 1.3 mm 1 mps 708 mmHg 70%
    13:00 +31°C° 1.3 mm 1 mps 708 mmHg 67%
    14:00 +30°C° 1.3 mm 0 mps 707 mmHg 65%
    15:00 +29°C° 1.1 mm 0 mps 707 mmHg 71%
    16:00 +28°C° 1.1 mm 0 mps 707 mmHg 78%
    17:00 +27°C° 1.1 mm 0 mps 706 mmHg 85%
    18:00 +25°C° 0.2 mm 0 mps 707 mmHg 87%
    19:00 +26°C° 0.2 mm 1 mps 707 mmHg 88%
    20:00 +24°C° 0.2 mm 1 mps 707 mmHg 90%
    21:00 +24°C° 0 mm 1 mps 707 mmHg 91%
    22:00 +24°C° 0 mm 1 mps 707 mmHg 91%
    23:00 +22°C° 0 mm 0 mps 707 mmHg 91%

    20 June, Thursday

    Time Temperature Precipitation Wind Pressure Humidity
    00:00 +22°C° 0.1 mm 0 mps 707 mmHg 91%
    01:00 +22°C° 0.1 mm 0 mps 707 mmHg 91%
    02:00 +21°C° 0.1 mm 0 mps 707 mmHg 91%
    03:00 +21°C° 0.1 mm 0 mps 707 mmHg 92%
    04:00 +21°C° 0.1 mm 0 mps 707 mmHg 93%
    05:00 +20°C° 0.1 mm 0 mps 707 mmHg 94%
    06:00 +21°C° 0 mm 0 mps 707 mmHg 92%
    07:00 +25°C° 0 mm 1 mps 708 mmHg 89%
    08:00 +26°C° 0 mm 1 mps 708 mmHg 87%
    09:00 +27°C° 0.6 mm 1 mps 708 mmHg 82%
    10:00 +29°C° 0.6 mm 1 mps 708 mmHg 76%
    11:00 +31°C° 0.6 mm 1 mps 708 mmHg 71%
    12:00 +31°C° 0.6 mm 1 mps 708 mmHg 69%
    13:00 +31°C° 0.6 mm 1 mps 707 mmHg 66%
    14:00 +32°C° 0.6 mm 1 mps 707 mmHg 63%
    15:00 +31°C° 0.5 mm 1 mps 706 mmHg 68%
    16:00 +30°C° 0.5 mm 1 mps 706 mmHg 72%
    17:00 +30°C° 0.5 mm 1 mps 706 mmHg 77%
    18:00 +28°C° 0 mm 1 mps 706 mmHg 80%
    19:00 +26°C° 0 mm 1 mps 707 mmHg 83%
    20:00 +25°C° 0 mm 1 mps 707 mmHg 86%
    21:00 +24°C° 0 mm 1 mps 707 mmHg 87%
    22:00 +24°C° 0 mm 1 mps 707 mmHg 88%
    23:00 +24°C° 0 mm 1 mps 707 mmHg 89%

    21 June, Friday

    Time Temperature Precipitation Wind Pressure Humidity
    00:00 +23°C° 0 mm 1 mps 707 mmHg 89%
    01:00 +23°C° 0 mm 1 mps 707 mmHg 89%
    02:00 +23°C° 0 mm 1 mps 706 mmHg 89%
    03:00 +23°C° 0 mm 1 mps 706 mmHg 89%
    04:00 +22°C° 0 mm 1 mps 706 mmHg 90%
    05:00 +22°C° 0 mm 1 mps 707 mmHg 91%
    06:00 +23°C° 0 mm 1 mps 707 mmHg 88%
    07:00 +24°C° 0 mm 2 mps 708 mmHg 85%
    08:00 +25°C° 0 mm 2 mps 708 mmHg 82%
    09:00 +27°C° 0.1 mm 2 mps 708 mmHg 77%
    10:00 +29°C° 0.1 mm 2 mps 708 mmHg 71%
    11:00 +30°C° 0.1 mm 2 mps 708 mmHg 66%
    12:00 +31°C° 0.9 mm 2 mps 707 mmHg 66%
    13:00 +31°C° 0.9 mm 2 mps 707 mmHg 65%
    14:00 +31°C° 0.9 mm 3 mps 706 mmHg 65%
    15:00 +30°C° 0.1 mm 2 mps 706 mmHg 69%
    16:00 +30°C° 0.1 mm 2 mps 706 mmHg 73%
    17:00 +29°C° 0.1 mm 2 mps 705 mmHg 77%
    18:00 +27°C° 0.9 mm 2 mps 706 mmHg 82%
    19:00 +25°C° 0.9 mm 2 mps 706 mmHg 87%
    20:00 +24°C° 0.9 mm 2 mps 706 mmHg 92%
    21:00 +24°C° 0 mm 2 mps 706 mmHg 92%
    22:00 +23°C° 0 mm 1 mps 706 mmHg 91%
    23:00 +23°C° 0 mm 1 mps 706 mmHg 91%

    22 June, Saturday

    Time Temperature Precipitation Wind Pressure Humidity
    00:00 +23°C° 0 mm 1 mps 706 mmHg 92%
    01:00 +22°C° 0 mm 1 mps 706 mmHg 94%
    02:00 +22°C° 0 mm 1 mps 706 mmHg 95%
    03:00 +21°C° 0 mm 2 mps 706 mmHg 96%
    04:00 +20°C° 0 mm 2 mps 706 mmHg 96%
    05:00 +20°C° 0 mm 2 mps 706 mmHg 97%
    06:00 +21°C° 0.5 mm 2 mps 707 mmHg 95%
    07:00 +21°C° 0.5 mm 2 mps 707 mmHg 94%
    08:00 +23°C° 0.5 mm 2 mps 708 mmHg 92%
    09:00 +25°C° 0.4 mm 2 mps 708 mmHg 86%
    10:00 +27°C° 0.4 mm 2 mps 708 mmHg 80%
    11:00 +29°C° 0.4 mm 2 mps 708 mmHg 74%
    12:00 +29°C° 0.5 mm 3 mps 707 mmHg 72%
    13:00 +30°C° 0.5 mm 3 mps 707 mmHg 70%
    14:00 +30°C° 0.5 mm 3 mps 706 mmHg 68%
    15:00 +30°C° 0.2 mm 3 mps 706 mmHg 72%
    16:00 +29°C° 0.2 mm 2 mps 706 mmHg 75%
    17:00 +28°C° 0.2 mm 2 mps 705 mmHg 78%
    18:00 +27°C° 0.4 mm 2 mps 706 mmHg 82%
    19:00 +26°C° 0.4 mm 2 mps 706 mmHg 86%
    20:00 +24°C° 0.4 mm 1 mps 706 mmHg 90%
    21:00 +24°C° 0 mm 2 mps 706 mmHg 90%
    22:00 +24°C° 0 mm 2 mps 707 mmHg 90%
    23:00 +24°C° 0 mm 2 mps 707 mmHg 90%
    Show more